Location: Unspecified
(52.4292°N, 19.3359°E)
Time: 23:35:30
(UTC+02:00)

A-11 Canister half - Pass Details

Date: 23 May 2024
Orbit: 1515 x 1685 km, 47.2° (Epoch: 19 June)

Event Time Altitude Azimuth Distance (km) Brightness Sun altitude
Rises 02:45:06 0° 221° (SW) 4,771 - -12.0°
Reaches altitude 10° 02:48:26 10° 215° (SW) 3,765 - -11.7°
Exits shadow 02:49:35 14° 211° (SSW) 3,436 10.1 -11.6°
Maximum altitude 02:57:04 41° 149° (SSE) 2,102 9.5 -11.0°
Drops below altitude 10° 03:05:30 10° 84° (E) 3,686 11.6 -10.3°
Sets 03:08:43 0° 77° (ENE) 4,663 12.3 -10.0°
